Location: *
(50.5492°N, 7.7469°E)
Time: 05:18:54
(UTC+00:00)

Cosmos 1892 - Pass Details

Date: 21 October 2019
Orbit: 503 x 526 km, 82.5° (Epoch: 11 November)

Event Time Altitude Azimuth Distance (km) Brightness Sun altitude
Rises 19:02:31 0° 347° (NNW) 2,638 6.7 -25.5°
Reaches altitude 10° 19:04:40 10° 344° (NNW) 1,742 5.7 -25.8°
Enters shadow 19:06:56 33° 333° (NNW) 871 4.1 -26.2°
